Wind_Speed
13 11 7 6 6 8 9 9 9 9 9 9 9 10 11 12 13 14 16 9 11 8 2 4 3 5 4 2 1 2 2 5 8 4 5 5 9 5 4 6 4 4 5 10 23
13 13 9 5 5 7 9 9 9 9 9 9 9 9 9 10 13 18 18 14 10 9 4 3 4 6 3 1 1 3 1 6 5 4 6 9 9 8 6 7 6 8 10 20 24
14 14 12 7 5 5 7 9 9 9 9 9 8 7 7 6 6 9 15 17 15 9 5 5 6 5 3 1 1 1 4 4 2 3 2 3 9 8 9 5 5 9 16 20 24
13 13 13 10 7 5 6 8 9 9 9 8 8 7 6 6 5 5 12 18 17 11 7 4 4 4 1 1 1 3 3 5 5 3 2 4 3 4 8 3 5 7 16 21 23
13 13 13 12 9 7 6 7 9 9 9 8 7 7 5 6 8 5 12 17 16 12 11 6 4 3 1 3 2 4 4 5 6 9 8 4 2 3 5 7 4 9 17 19 20
12 13 12 12 10 8 6 7 9 10 9 9 8 7 4 10 9 4 11 15 13 12 9 7 1 4 5 2 4 7 9 8 3 5 1 3 5 2 9 3 7 11 15 19 23
12 12 12 12 11 8 6 7 9 10 9 8 7 7 7 8 7 8 12 9 12 11 9 6 3 5 6 3 4 5 6 2 4 7 3 9 6 7 5 6 11 13 12 13 14
12 11 11 11 11 6 5 7 10 10 9 8 6 4 6 7 11 12 9 9 13 9 7 6 3 6 4 5 3 5 4 5 7 11 3 7 7 5 4 8 11 12 11 16 16
12 11 11 11 10 4 4 8 10 9 8 7 4 4 3 7 11 11 10 11 11 8 7 4 3 5 6 7 6 4 2 3 5 9 1 6 8 4 3 6 8 8 7 11 16
11 10 10 10 8 3 7 9 9 8 7 5 6 5 6 9 11 12 12 11 13 10 8 7 6 8 7 9 3 3 4 3 6 5 5 9 8 4 4 4 6 7 7 7 12
11 10 9 9 6 6 13 12 5 3 11 6 3 2 5 6 15 13 14 13 13 14 12 11 10 13 5 4 5 7 7 6 5 2 2 6 7 4 5 4 4 1 1 10 17
13 10 9 8 5 10 16 6 3 2 6 16 9 9 4 5 14 16 16 16 16 15 16 8 15 7 2 5 6 8 8 4 5 1 2 4 8 6 5 2 1 7 11 16 18
13 10 9 7 4 13 19 8 9 2 7 7 10 8 7 8 17 20 20 18 18 20 16 16 6 1 6 7 8 10 8 7 6 5 4 5 8 7 7 5 4 7 11 14 17
14 11 7 5 3 12 14 13 11 4 5 11 9 8 8 9 10 16 20 16 11 19 16 15 11 6 7 10 9 11 5 7 5 8 2 6 2 5 6 5 6 10 13 14 13
14 12 8 6 4 12 9 14 8 1 6 10 7 6 12 16 17 17 18 15 15 15 11 14 11 13 12 13 5 3 4 6 5 6 6 7 8 9 5 7 9 12 14 15 15
14 12 9 8 11 13 13 14 6 6 4 7 9 13 15 15 10 22 18 14 8 16 13 17 7 5 8 7 8 7 8 4 6 6 10 7 7 9 6 7 10 13 13 16 17
13 10 8 10 7 14 17 11 6 7 5 9 11 17 18 14 12 16 20 19 12 15 14 16 13 13 8 10 10 9 11 8 9 6 1 5 5 9 10 8 9 14 17 18 18
8 4 8 14 17 20 17 8 8 2 6 6 10 18 16 17 11 15 20 18 19 15 12 13 16 21 12 17 10 14 15 7 5 3 1 4 3 8 10 11 10 11 20 20 19
0 5 9 15 22 18 14 10 1 2 2 8 12 16 15 16 6 12 16 20 18 16 11 14 12 15 10 12 12 9 11 9 6 7 7 5 4 7 8 9 12 17 21 21 20
11 9 5 17 17 14 9 6 1 1 1 6 10 15 16 18 13 13 15 15 19 20 17 8 13 12 11 9 8 11 4 9 10 5 7 5 3 4 16 15 14 16 21 21 20
8 5 6 14 12 10 9 3 2 1 2 3 6 10 11 17 15 16 14 7 20 22 19 8 9 11 8 12 16 9 10 10 8 7 3 4 7 5 17 18 18 18 18 19 19
1 2 13 14 8 9 8 5 2 5 3 5 4 6 10 15 15 13 10 13 25 25 23 17 10 9 17 8 4 9 14 16 11 12 7 8 3 3 13 19 21 20 17 15 15
2 7 8 6 6 8 5 8 6 9 7 2 5 6 5 10 10 13 10 7 13 20 21 17 9 10 11 11 9 11 16 17 18 10 6 9 5 8 13 17 20 22 21 19 18
2 5 6 7 6 7 4 8 8 4 10 8 6 4 6 6 8 5 9 6 14 22 25 17 15 13 13 5 4 14 16 20 18 11 12 10 3 12 15 16 18 20 21 22 21
2 2 1 8 9 6 4 2 5 4 6 6 6 9 8 5 7 9 9 6 11 12 14 17 18 14 17 3 5 10 13 19 20 18 10 3 7 7 16 17 21 21 22 21 21
4 3 2 1 3 5 5 4 5 3 5 7 8 6 8 7 4 4 8 6 8 11 14 17 9 13 14 9 9 9 10 14 17 9 9 13 10 7 11 20 23 25 24 23 21
6 4 3 4 5 5 2 2 1 3 5 4 6 7 6 5 6 10 6 5 6 11 12 13 8 7 12 8 8 9 11 12 11 10 9 11 6 4 10 19 24 26 25 24 23
Wind_Direction
6 357 333 297 269 252 240 236 236 235 234 234 236 240 240 241 245 243 236 220 223 217 252 322 304 306 306 277 318 337 206 94 87 89 99 171 191 193 199 154 162 130 87 143 161
3 3 352 325 286 262 244 237 233 232 230 232 234 239 243 243 246 248 226 219 220 221 225 274 307 317 284 273 196 292 347 49 356 352 81 170 206 181 187 189 169 134 121 144 158
355 357 358 342 313 277 250 236 231 226 226 226 230 234 238 242 270 240 223 215 207 195 228 275 311 307 284 253 63 275 16 343 325 327 290 182 207 208 227 203 214 193 160 160 162
349 349 351 346 323 299 263 236 229 223 219 219 223 225 224 196 206 197 202 206 205 197 219 262 290 271 280 31 38 274 56 286 338 1 293 235 292 213 239 62 354 194 176 169 171
341 342 344 345 324 301 268 239 223 216 213 214 214 219 207 228 244 214 186 192 201 198 214 226 271 314 347 1 290 274 344 305 302 307 279 274 25 74 38 316 254 158 162 168 171
332 336 336 337 330 303 267 235 213 208 207 211 211 212 206 235 211 184 167 178 195 189 204 207 307 324 283 317 274 328 307 308 349 31 46 170 71 221 15 15 148 158 157 168 174
326 330 330 331 331 308 258 220 201 197 200 203 205 215 237 217 201 172 157 170 183 184 192 202 255 278 324 225 314 295 280 199 41 347 69 144 88 47 42 103 129 138 154 167 183
323 324 325 326 328 309 239 203 189 188 192 200 200 211 248 232 194 174 167 174 182 190 189 187 237 278 258 299 227 273 236 203 67 0 77 220 88 71 87 121 131 136 155 171 195
320 318 321 323 325 293 204 185 177 180 185 188 191 209 230 205 194 188 179 181 177 178 186 205 267 278 228 239 206 234 89 12 126 34 150 228 107 104 128 146 148 155 167 191 195
322 317 316 320 320 244 170 163 165 173 178 186 215 230 225 176 175 175 181 175 181 174 175 211 229 239 218 237 210 63 345 350 11 53 75 83 91 117 143 187 199 220 269 207 182
325 314 313 317 312 192 161 139 133 196 205 218 192 281 144 179 165 175 172 177 186 191 196 204 231 220 107 10 346 319 305 317 78 89 73 69 91 115 150 195 213 173 53 152 149
323 312 309 314 291 193 180 185 240 189 228 225 234 236 219 179 173 176 174 186 195 198 203 182 227 213 125 300 292 293 287 290 125 118 241 130 105 114 131 115 154 131 112 144 158
321 312 308 309 259 193 192 198 165 38 251 179 210 219 198 189 190 179 184 201 200 206 194 222 183 32 238 260 269 261 285 303 297 137 116 173 142 141 122 146 140 145 144 148 160
317 307 298 306 196 199 207 210 198 350 248 152 193 198 188 183 203 183 193 189 204 211 206 226 170 232 241 245 263 262 1 286 252 231 213 226 77 154 142 137 181 163 162 161 169
312 299 279 236 196 169 199 196 190 280 229 138 149 168 166 188 150 191 187 198 210 204 191 208 216 232 241 242 222 336 337 292 241 238 226 170 260 117 164 157 155 176 167 164 159
307 288 269 228 213 195 186 183 179 226 216 151 144 175 171 193 195 157 182 207 228 216 207 240 185 228 244 214 225 303 267 207 197 226 236 108 274 151 150 125 139 155 157 162 162
308 280 237 192 179 181 163 156 210 249 136 159 173 171 186 177 169 178 187 195 190 196 201 217 210 216 222 237 220 239 227 222 218 203 169 101 253 69 126 140 142 155 156 161 163
307 250 195 185 174 165 162 204 238 83 183 136 165 177 191 174 173 194 192 200 212 214 208 209 208 220 210 229 234 211 233 240 268 214 161 147 253 115 129 143 159 166 161 165 173
143 118 161 173 168 167 192 216 175 143 77 164 164 177 198 185 191 184 204 210 197 213 230 195 226 180 208 217 233 181 234 288 278 209 266 109 138 156 155 154 168 176 167 170 174
117 105 136 163 165 167 220 261 145 20 310 212 184 193 188 192 201 198 185 206 199 205 224 200 204 192 175 209 209 274 214 214 235 238 258 140 225 105 178 176 171 173 174 170 166
115 149 158 149 147 192 215 190 236 194 317 250 212 190 217 186 205 197 181 170 200 192 211 216 240 158 182 203 213 191 222 239 284 275 302 252 111 125 183 177 169 175 169 165 162
148 147 158 153 206 201 224 226 2 258 239 268 265 269 213 180 200 200 213 227 189 193 200 217 211 219 204 129 316 292 246 216 229 196 246 306 53 117 176 175 173 169 172 165 158
112 114 158 189 213 198 192 248 257 278 265 242 230 246 177 175 207 218 220 190 189 198 194 202 231 204 221 196 201 227 219 248 241 261 206 268 121 145 159 168 177 166 162 157 149
208 145 164 215 280 282 212 232 244 223 261 275 284 249 194 227 221 210 208 165 201 195 200 191 231 229 224 199 338 203 217 213 238 226 237 209 170 168 169 168 167 170 165 157 153
318 71 32 184 202 218 242 293 240 225 209 228 243 242 217 245 195 212 201 154 186 182 201 216 232 218 249 262 282 279 215 205 223 242 254 244 247 159 180 180 174 168 164 159 158
349 322 213 209 179 223 153 195 255 208 240 201 241 305 235 252 318 189 182 196 172 182 197 210 234 226 235 245 262 255 230 210 228 244 265 285 283 59 167 175 179 174 169 167 163
9 349 304 144 186 226 137 350 305 308 207 273 305 272 225 68 71 73 103 125 134 175 195 202 211 212 225 211 235 242 217 215 219 239 250 253 31 95 158 179 186 178 176 170 167
Height
1517 1515 1513 1512 1512 1512 1512 1513 1514 1514 1515 1516 1516 1516 1517 1518 1518 1519 1519 1522 1522 1523 1524 1524 1523 1523 1521 1520 1519 1517 1509 1513 1511 1508 1512 1514 1516 1517 1518 1519 1522 1525 1526 1529 1535
1517 1514 1512 1511 1510 1510 1510 1511 1512 1513 1513 1514 1515 1515 1516 1516 1517 1516 1517 1519 1520 1522 1525 1525 1524 1523 1519 1519 1519 1515 1509 1514 1512 1509 1508 1513 1514 1515 1517 1517 1522 1527 1529 1531 1533
1516 1513 1511 1510 1508 1508 1508 1509 1509 1511 1512 1512 1513 1514 1515 1516 1517 1514 1513 1516 1518 1521 1523 1524 1523 1522 1517 1517 1516 1514 1513 1513 1512 1512 1512 1511 1514 1515 1515 1515 1517 1522 1528 1530 1533
1515 1512 1510 1508 1507 1506 1506 1507 1507 1509 1510 1511 1512 1513 1514 1515 1512 1510 1511 1514 1517 1521 1523 1524 1523 1519 1516 1514 1515 1513 1513 1513 1512 1513 1513 1513 1514 1515 1516 1518 1520 1521 1526 1529 1534
1514 1512 1509 1507 1505 1504 1504 1505 1506 1507 1508 1509 1511 1512 1514 1516 1512 1509 1510 1513 1517 1520 1522 1524 1522 1519 1515 1516 1515 1512 1512 1512 1513 1512 1511 1512 1515 1516 1520 1521 1521 1523 1526 1531 1535
1513 1510 1508 1506 1504 1502 1502 1503 1504 1505 1507 1508 1510 1511 1513 1513 1509 1509 1510 1513 1517 1520 1522 1523 1522 1522 1518 1517 1516 1514 1512 1511 1511 1511 1510 1511 1517 1517 1523 1521 1520 1524 1527 1531 1532
1511 1509 1506 1504 1502 1500 1500 1501 1502 1504 1506 1507 1509 1510 1512 1509 1508 1509 1510 1514 1517 1520 1522 1522 1523 1522 1519 1515 1516 1513 1511 1508 1510 1510 1509 1513 1516 1522 1525 1523 1523 1525 1531 1534 1537
1508 1506 1504 1502 1500 1499 1499 1499 1501 1503 1505 1507 1508 1510 1509 1505 1506 1508 1510 1514 1516 1519 1521 1522 1522 1521 1518 1515 1511 1510 1508 1509 1510 1510 1512 1512 1521 1524 1525 1523 1524 1527 1530 1529 1535
1506 1504 1502 1500 1498 1497 1498 1499 1501 1503 1505 1507 1509 1510 1505 1503 1506 1508 1510 1514 1516 1519 1520 1520 1521 1517 1515 1510 1509 1506 1512 1515 1511 1511 1509 1508 1518 1525 1525 1523 1526 1528 1529 1530 1533
1504 1502 1500 1499 1497 1497 1497 1500 1502 1503 1505 1507 1508 1512 1503 1502 1505 1507 1509 1512 1515 1517 1520 1520 1517 1511 1507 1503 1517 1517 1513 1512 1514 1512 1508 1510 1519 1523 1524 1524 1525 1526 1526 1529 1533
1501 1500 1498 1497 1495 1496 1498 1501 1506 1507 1503 1498 1499 1499 1499 1501 1502 1506 1508 1511 1513 1514 1513 1516 1513 1511 1504 1511 1512 1513 1514 1513 1509 1512 1511 1514 1518 1521 1523 1523 1523 1524 1526 1530 1532
1499 1497 1496 1495 1494 1494 1496 1499 1499 1499 1496 1497 1498 1498 1498 1499 1501 1504 1507 1509 1509 1508 1509 1515 1513 1501 1511 1512 1512 1512 1513 1508 1510 1512 1508 1513 1519 1519 1520 1521 1522 1525 1527 1531 1533
1496 1494 1493 1493 1492 1493 1495 1497 1496 1497 1494 1493 1495 1497 1498 1500 1497 1500 1505 1504 1505 1505 1509 1508 1504 1506 1510 1510 1512 1507 1507 1507 1510 1512 1509 1511 1516 1516 1520 1522 1524 1525 1527 1531 1533
1493 1491 1491 1491 1494 1492 1494 1495 1496 1496 1485 1486 1490 1492 1495 1497 1498 1498 1501 1505 1502 1501 1505 1505 1502 1510 1509 1511 1508 1511 1505 1505 1507 1510 1511 1506 1518 1515 1516 1517 1522 1524 1526 1529 1532
1489 1487 1488 1488 1488 1491 1493 1494 1497 1498 1490 1481 1488 1489 1492 1493 1487 1497 1500 1503 1499 1499 1505 1505 1506 1509 1511 1506 1504 1505 1505 1502 1501 1503 1504 1507 1510 1510 1511 1514 1517 1520 1523 1527 1531
1484 1483 1484 1486 1487 1488 1490 1494 1498 1494 1486 1478 1481 1484 1488 1488 1488 1492 1499 1501 1499 1498 1503 1497 1504 1505 1502 1503 1505 1504 1506 1502 1498 1495 1511 1502 1506 1503 1503 1509 1513 1517 1522 1526 1531
1479 1478 1479 1482 1487 1487 1490 1496 1490 1482 1469 1477 1476 1478 1479 1483 1485 1488 1492 1496 1498 1508 1506 1502 1502 1502 1505 1504 1500 1503 1501 1511 1514 1512 1521 1503 1510 1503 1502 1508 1509 1514 1520 1526 1531
1475 1475 1476 1479 1482 1486 1490 1492 1485 1466 1464 1464 1468 1474 1477 1477 1479 1483 1487 1491 1491 1490 1491 1504 1511 1497 1496 1500 1495 1497 1492 1505 1525 1518 1516 1504 1510 1502 1501 1509 1513 1514 1518 1524 1529
1473 1474 1476 1479 1482 1486 1492 1481 1466 1463 1465 1465 1469 1475 1475 1474 1476 1481 1483 1484 1484 1488 1493 1495 1496 1484 1489 1491 1493 1495 1503 1478 1489 1490 1501 1492 1500 1502 1504 1509 1512 1513 1516 1520 1525
1475 1478 1480 1480 1484 1488 1485 1475 1469 1471 1469 1466 1468 1466 1474 1474 1477 1477 1481 1476 1480 1485 1482 1484 1497 1484 1488 1492 1493 1492 1480 1498 1489 1518 1517 1499 1499 1493 1502 1506 1509 1511 1514 1519 1523
1477 1478 1482 1484 1487 1489 1477 1468 1472 1472 1473 1466 1463 1466 1462 1467 1468 1472 1473 1471 1475 1481 1485 1483 1483 1489 1489 1489 1485 1492 1491 1488 1488 1481 1509 1506 1493 1474 1490 1497 1505 1510 1513 1519 1524
1479 1475 1484 1485 1487 1479 1472 1473 1477 1470 1471 1469 1466 1459 1460 1461 1467 1468 1469 1468 1469 1475 1484 1483 1480 1486 1484 1475 1481 1480 1480 1480 1493 1499 1487 1493 1489 1484 1486 1495 1503 1510 1515 1521 1526
1478 1482 1485 1485 1475 1474 1473 1474 1474 1470 1467 1464 1461 1459 1454 1459 1469 1462 1462 1463 1469 1470 1477 1479 1484 1493 1490 1481 1483 1483 1479 1475 1469 1465 1485 1494 1484 1484 1489 1495 1501 1508 1516 1522 1525
1479 1476 1485 1485 1480 1471 1471 1470 1470 1469 1469 1467 1463 1461 1460 1462 1460 1461 1463 1467 1469 1470 1475 1477 1474 1480 1485 1477 1467 1479 1474 1473 1472 1481 1479 1480 1477 1485 1490 1496 1504 1510 1515 1518 1523
1479 1475 1476 1474 1474 1473 1474 1472 1469 1466 1468 1467 1461 1460 1458 1461 1460 1464 1459 1467 1470 1472 1474 1475 1479 1473 1468 1473 1475 1473 1470 1472 1475 1466 1476 1469 1471 1466 1485 1493 1502 1508 1514 1518 1522
1480 1479 1478 1474 1476 1474 1474 1467 1468 1465 1467 1461 1464 1457 1457 1460 1456 1457 1460 1460 1463 1472 1470 1468 1475 1468 1476 1471 1475 1474 1469 1469 1469 1465 1473 1471 1474 1475 1483 1494 1501 1505 1511 1516 1520
1483 1482 1482 1475 1471 1470 1467 1470 1468 1471 1465 1465 1465 1462 1459 1462 1462 1460 1459 1460 1460 1464 1468 1468 1471 1479 1483 1476 1480 1488 1472 1469 1469 1470 1472 1479 1476 1481 1486 1492 1497 1503 1509 1514 1518